[[{"header":{"parameterUnit":"m.s-1","parameterCategory":1,"la1":30.2991,"la2":30.254,"lo1":-89.0895,"lo2":-89.0444,"dy":0.0017,"dx":0.0017,"nx":28,"ny":28,"refTime":"2025-06-21T09:00:00:Z","depth":0,"parameterNumber":2,"parameterNumberName":"U-component_of_WINDS"},"data":[0,0,0,0,0,0,0,0,0,0,0,0,0,0,0,0,0,0,0,0,0,0,0,0,0,0,0,0,0,0,0,0,0,0,0,0,0,0,0,0,0,0,0,0,0,0,0,0,0,0,0,0,0,0,0,0,0,0,-1.1826,-1.1825,0,-1.1762,-1.1761,-1.176,-1.1684,-1.1682,-1.1681,-1.168,-1.1616,-1.1615,-1.1615,0,0,0,0,0,0,0,0,0,0,0,0,0,-1.1885,-1.1884,-1.1826,-1.1825,-1.1824,-1.1762,-1.1761,-1.176,-1.1684,-1.1682,-1.1681,-1.168,-1.1616,-1.1616,-1.1615,0,0,0,0,0,0,0,0,0,0,0,0,0,-1.1844,-1.1884,-1.1826,-1.1779,-1.1774,-1.1762,-1.1761,-1.176,-1.1684,-1.1682,-1.1681,-1.1679,-1.1616,-1.1616,-1.1615,-1.1645,0,0,-1.1612,-1.1612,0,0,0,0,0,0,0,0,-1.1847,-1.1842,-1.1786,-1.1782,-1.1776,-1.1729,-1.1758,-1.1722,-1.1685,-1.1718,-1.168,-1.1678,-1.1655,-1.1651,-1.1643,-1.1642,-1.1639,-1.1612,-1.1611,-1.1611,-1.1611,0,0,0,0,0,0,0,-1.1849,-1.1844,-1.1801,-1.1786,-1.178,-1.1762,-1.1754,-1.1751,-1.1698,-1.1715,-1.1709,-1.1703,-1.1652,-1.1644,-1.1641,-1.1638,-1.1612,-1.1611,-1.1611,-1.161,-1.1662,-1.1664,0,0,0,0,0,0,-1.1859,-1.1847,-1.1803,-1.1799,-1.1808,-1.1762,-1.1753,-1.1746,-1.1697,-1.1688,-1.1704,-1.1699,-1.1646,-1.1642,-1.1638,-1.1672,-1.1611,-1.161,-1.161,-1.166,-1.1662,-1.1665,0,0,0,0,0,0,-1.1861,-1.1856,-1.1805,-1.1821,-1.1814,-1.1763,-1.1755,-1.1746,-1.1737,-1.1689,-1.168,-1.1706,-1.1645,-1.164,-1.1644,-1.1669,-1.161,-1.1609,-1.1658,-1.1661,-1.1664,-1.1739,0,0,0,0,0,0,-1.1863,-1.1857,-1.1867,-1.1822,-1.1813,-1.1812,-1.1757,-1.1746,-1.1736,-1.1729,-1.1688,-1.1679,-1.1643,-1.1646,-1.1644,-1.1666,-1.1608,-1.1655,-1.1659,-1.1663,-1.1734,-1.1744,-1.1753,0,0,0,0,0,-1.1865,-1.189,-1.1868,-1.1863,-1.1824,-1.1813,-1.1808,-1.1765,-1.1738,-1.1749,-1.1718,-1.1681,-1.1667,-1.1647,-1.1644,-1.1667,-1.1654,-1.1658,-1.1662,-1.173,-1.1742,-1.1752,0,0,0,0,0,0,-1.1939,-1.1884,-1.1858,-1.1869,-1.1847,-1.18,-1.1811,-1.1779,-1.1763,-1.1758,-1.1706,-1.1697,-1.1709,-1.1688,-1.1668,-1.1695,-1.1655,-1.1659,-1.1708,-1.1719,-1.1728,-1.1733,-1.1608,0,0,0,0,0,-1.1957,-1.1951,-1.1903,-1.1918,-1.1908,-1.1863,-1.1856,-1.1825,-1.1799,-1.1789,-1.1759,-1.1737,-1.1727,-1.1722,-1.171,-1.1731,-1.1722,-1.1746,-1.1755,-1.1763,-1.1767,-1.1778,-1.1789,-1.1679,-1.1679,-1.1679,0,0,-1.1993,-1.1962,-1.1962,-1.1933,-1.1911,-1.1908,-1.1855,-1.1853,-1.1851,-1.1789,-1.1792,-1.177,-1.1741,-1.1755,-1.1759,-1.1738,-1.1795,-1.1768,-1.1775,-1.1774,-1.1784,-1.1794,-1.1804,-1.1682,-1.1681,-1.1681,0,0,-1.2057,-1.2033,-1.2043,-1.2024,-1.1993,-1.1962,-1.1965,-1.1924,-1.1907,-1.1909,-1.1864,-1.1861,-1.1846,-1.1828,-1.1817,-1.1878,-1.1844,-1.1876,-1.1924,-1.1936,-1.1945,-1.1952,-1.1976,-1.1984,-1.188,-1.188,-1.188,0,-1.2106,-1.2099,-1.2053,-1.2055,-1.2044,-1.199,-1.2001,-1.1984,-1.1951,-1.1946,-1.1923,-1.1904,-1.188,-1.189,-1.1905,-1.1898,-1.1901,-1.188,-1.1947,-1.1954,-1.1961,-1.1982,-1.1991,-1.1884,-1.1884,-1.1884,-1.1883,0,-1.2162,-1.2158,-1.217,-1.214,-1.2131,-1.2138,-1.2094,-1.2091,-1.2062,-1.2035,-1.2039,-1.201,-1.1993,-1.1993,-1.1964,-1.1999,-1.1987,-1.1957,-1.1915,-1.1976,-1.1996,-1.2003,-1.189,-1.1889,-1.1888,-1.1887,0,0,-1.2268,-1.2215,-1.222,-1.2207,-1.217,-1.2167,-1.2172,-1.2155,-1.2154,-1.2134,-1.2138,-1.2128,-1.21,-1.2088,-1.2057,-1.2068,-1.2121,-1.2036,-1.2034,-1.2053,-1.216,-1.2183,-1.2193,-1.2098,-1.2099,-1.21,-1.2162,0,-1.2327,-1.2332,-1.2292,-1.2309,-1.2306,-1.2255,-1.226,-1.2239,-1.2215,-1.2209,-1.2183,-1.2177,-1.2139,-1.2132,-1.214,-1.2112,-1.2141,-1.2107,-1.2102,-1.2103,-1.2111,-1.2203,-1.2228,-1.2287,-1.217,-1.2171,-1.2172,0,-1.2394,-1.2379,-1.2395,-1.236,-1.2357,-1.2362,-1.2345,-1.234,-1.2316,-1.2298,-1.2286,-1.2251,-1.2256,-1.2217,-1.2224,-1.2202,-1.2198,-1.2184,-1.2186,-1.2183,-1.2141,-1.2204,-1.2305,-1.2314,-1.2183,-1.2182,-1.2181,0,-1.2472,-1.2455,-1.2463,-1.2453,-1.2412,-1.2417,-1.2401,-1.2375,-1.2368,-1.2354,-1.2349,-1.2336,-1.2328,-1.2319,-1.2283,-1.2258,-1.2295,-1.2252,-1.228,-1.2282,-1.229,-1.229,-1.2392,-1.2287,-1.2287,-1.2287,-1.2287,0,-1.2541,-1.2553,-1.2498,-1.2503,-1.2516,-1.2472,-1.2486,-1.2465,-1.2443,-1.2444,-1.24,-1.2402,-1.2353,-1.2351,-1.2322,-1.2333,-1.233,-1.2316,-1.2309,-1.232,-1.2322,-1.2317,-1.2312,-1.2289,-1.2289,-1.2288,-1.2288,0,-1.2629,-1.2593,-1.2598,-1.256,-1.255,-1.2562,-1.2529,-1.2533,-1.2507,-1.2509,-1.2507,-1.2467,-1.2462,-1.2424,-1.2411,-1.2392,-1.2414,-1.2398,-1.2422,-1.2417,-1.2447,-1.2445,-1.255,-1.2562,-1.2449,-1.245,-1.2451,0,-1.2675,-1.2684,-1.2647,-1.2644,-1.263,-1.2626,-1.262,-1.2577,-1.2573,-1.2548,-1.2555,-1.2547,-1.2537,-1.2532,-1.2502,-1.2492,-1.2476,-1.2514,-1.2474,-1.2487,-1.2478,-1.2478,-1.2479,-1.2522,-1.2523,-1.2524,-1.2525,0,-1.2762,-1.2744,-1.2736,-1.2723,-1.2716,-1.2704,-1.2689,-1.2689,-1.2643,-1.264,-1.2635,-1.2628,-1.2615,-1.2608,-1.2593,-1.2577,-1.2545,-1.2538,-1.2544,-1.2556,-1.257,-1.2564,-1.2445,-1.2536,-1.2535,-1.2534,-1.2533,-1.2533,-1.2831,-1.2837,-1.2813,-1.2806,-1.279,-1.2778,-1.278,-1.2755,-1.275,-1.2736,-1.2712,-1.271,-1.2689,-1.2666,-1.2653,-1.2652,-1.2633,-1.2641,-1.2644,-1.2646,-1.2653,-1.2571,-1.2649,-1.2649,-1.2649,-1.2648,-1.2648,0,-1.2916,-1.2899,-1.2893,-1.2874,-1.2869,-1.2839,-1.2821,-1.282,-1.2819,-1.2802,-1.2794,-1.2789,-1.2783,-1.2753,-1.2744,-1.2749,-1.2734,-1.2749,-1.2748,-1.2745,-1.2671,-1.2667,-1.2761,-1.2761,-1.2761,-1.2761,-1.2761,-1.2761,-1.296,-1.2969,-1.2949,-1.2951,-1.2933,-1.2932,-1.2924,-1.2914,-1.29,-1.2896,-1.2891,-1.2872,-1.285,-1.2839,-1.2833,-1.2824,-1.2823,-1.2843,-1.283,-1.2761,-1.275,-1.274,-1.2736,-1.2843,-1.2843,-1.2904,-1.2905,-1.2905]},{"header":{"parameterUnit":"m.s-1","parameterCategory":1,"la1":30.2991,"la2":30.254,"lo1":-89.0895,"lo2":-89.0444,"dy":0.0017,"dx":0.0017,"nx":28,"ny":28,"refTime":"2025-06-21T09:00:00:Z","depth":0,"parameterNumber":3,"parameterNumberName":"V-component_of_WINDS"},"data":[0,0,0,0,0,0,0,0,0,0,0,0,0,0,0,0,0,0,0,0,0,0,0,0,0,0,0,0,0,0,0,0,0,0,0,0,0,0,0,0,0,0,0,0,0,0,0,0,0,0,0,0,0,0,0,0,0,0,2.9011,2.9012,0,2.9045,2.9046,2.9046,2.912,2.9122,2.9123,2.9124,2.9156,2.9155,2.9155,0,0,0,0,0,0,0,0,0,0,0,0,0,2.9006,2.9006,2.9011,2.9012,2.9012,2.9045,2.9046,2.9046,2.912,2.9122,2.9123,2.9125,2.9156,2.9155,2.9155,0,0,0,0,0,0,0,0,0,0,0,0,0,2.9021,2.9006,2.9011,2.9053,2.9057,2.9045,2.9046,2.9046,2.9119,2.9122,2.9124,2.9126,2.9156,2.9155,2.9154,2.9104,0,0,2.9152,2.9151,0,0,0,0,0,0,0,0,2.902,2.9021,2.9046,2.905,2.9054,2.9081,2.9056,2.9066,2.9119,2.9095,2.9125,2.9127,2.9129,2.913,2.9132,2.9105,2.9107,2.9152,2.9151,2.9151,2.9151,0,0,0,0,0,0,0,2.9019,2.902,2.9025,2.9046,2.9052,2.9069,2.9073,2.9058,2.9099,2.9098,2.9103,2.9106,2.9131,2.9132,2.9133,2.9107,2.9152,2.9151,2.9151,2.915,2.904,2.9038,0,0,0,0,0,0,2.9013,2.9019,2.9024,2.9026,2.9043,2.9067,2.9072,2.907,2.9099,2.9106,2.9104,2.911,2.9133,2.9134,2.9134,2.9076,2.9151,2.915,2.915,2.9043,2.904,2.9037,0,0,0,0,0,0,2.9012,2.9012,2.9022,2.9024,2.9026,2.9065,2.9062,2.907,2.9071,2.9105,2.9112,2.9098,2.9134,2.9135,2.9111,2.9078,2.915,2.9149,2.9046,2.9042,2.9039,2.8959,0,0,0,0,0,0,2.9012,2.9012,2.8993,2.9023,2.9026,2.8999,2.906,2.9069,2.9069,2.9076,2.91,2.9106,2.9136,2.9112,2.911,2.9078,2.9148,2.9049,2.9044,2.904,2.8965,2.8954,2.8944,0,0,0,0,0,2.9011,2.8969,2.8992,2.8992,2.9004,2.8997,2.8999,2.9035,2.9066,2.9048,2.907,2.9106,2.9083,2.9109,2.9107,2.9075,2.9051,2.9045,2.904,2.897,2.8956,2.8944,0,0,0,0,0,0,2.8933,2.8974,2.9,2.8966,2.8978,2.9009,2.8987,2.9019,2.9021,2.9027,2.9072,2.9076,2.9045,2.9058,2.9087,2.9027,2.9072,2.9067,2.902,2.9006,2.8996,2.8992,2.9148,0,0,0,0,0,2.8913,2.8904,2.894,2.8907,2.8911,2.8948,2.8946,2.8974,2.8987,2.8992,2.9012,2.9022,2.9017,2.9013,2.9011,2.8968,2.8974,2.8945,2.8934,2.8925,2.8919,2.8896,2.8884,2.902,2.902,2.902,0,0,2.8869,2.889,2.8882,2.8891,2.8904,2.8893,2.8952,2.8938,2.893,2.8989,2.8967,2.8982,2.8997,2.8963,2.8949,2.8972,2.8883,2.8919,2.8911,2.891,2.8889,2.8877,2.8865,2.9016,2.9017,2.9017,0,0,2.8783,2.8799,2.8773,2.8784,2.8803,2.8828,2.8821,2.8848,2.8861,2.884,2.8884,2.8875,2.8866,2.8875,2.8878,2.8796,2.8829,2.8794,2.8737,2.8715,2.8704,2.8695,2.8664,2.8653,2.8788,2.8788,2.8788,0,2.8726,2.8713,2.8755,2.8738,2.8741,2.8796,2.8769,2.8778,2.8793,2.8793,2.882,2.881,2.8824,2.8792,2.8772,2.8773,2.8766,2.879,2.8702,2.8693,2.8685,2.8656,2.8645,2.8784,2.8784,2.8785,2.8785,0,2.8641,2.8631,2.8607,2.8622,2.8623,2.8601,2.8639,2.8634,2.8661,2.8683,2.866,2.8679,2.8681,2.8676,2.8702,2.8648,2.8662,2.8695,2.8741,2.8667,2.8641,2.863,2.8777,2.8779,2.878,2.8781,0,0,2.8505,2.8545,2.8535,2.8543,2.8567,2.856,2.854,2.8544,2.8538,2.8547,2.8531,2.8522,2.8553,2.8557,2.8585,2.8565,2.8498,2.8601,2.8602,2.8579,2.8437,2.841,2.8397,2.852,2.8519,2.8517,2.8435,0,2.8423,2.8393,2.8431,2.8392,2.8383,2.8435,2.8418,2.8431,2.8451,2.8445,2.8467,2.846,2.8502,2.8505,2.8488,2.8509,2.8469,2.8516,2.8504,2.8503,2.8496,2.8383,2.8355,2.8276,2.8425,2.8423,2.8422,0,2.8324,2.833,2.829,2.8317,2.8315,2.8299,2.8304,2.8299,2.8314,2.833,2.8334,2.8368,2.835,2.8397,2.8371,2.8402,2.84,2.8409,2.8407,2.8406,2.8456,2.8376,2.8252,2.824,2.8407,2.8408,2.8409,0,2.8226,2.8225,2.82,2.8205,2.8237,2.8224,2.8236,2.8254,2.8254,2.8259,2.8258,2.8261,2.8261,2.8262,2.8295,2.8326,2.8265,2.8315,2.8276,2.8275,2.8259,2.8259,2.813,2.826,2.826,2.8261,2.8261,0,2.813,2.8103,2.8157,2.8142,2.8113,2.8157,2.8127,2.8144,2.816,2.8148,2.8194,2.8182,2.8228,2.822,2.8246,2.822,2.8221,2.8232,2.8239,2.8227,2.8225,2.8224,2.8229,2.8258,2.8258,2.8259,2.8259,0,2.8016,2.8051,2.8028,2.806,2.8068,2.8045,2.8072,2.8058,2.8083,2.8067,2.8066,2.8102,2.8096,2.813,2.8129,2.8147,2.8107,2.8124,2.8102,2.8106,2.8065,2.8068,2.793,2.7913,2.8055,2.8054,2.8053,0,2.7951,2.7932,2.7962,2.7958,2.7969,2.7962,2.7962,2.8004,2.8002,2.8018,2.8003,2.8,2.8,2.7987,2.8013,2.8012,2.8029,2.798,2.8029,2.8017,2.8026,2.8025,2.8023,2.7969,2.7968,2.7966,2.7965,0,2.7831,2.785,2.7849,2.7854,2.7853,2.7858,2.7867,2.7861,2.7907,2.7902,2.7896,2.7897,2.7897,2.7893,2.7898,2.7909,2.7944,2.795,2.7941,2.7927,2.7914,2.7919,2.8072,2.7952,2.7954,2.7955,2.7955,2.7956,2.7739,2.7724,2.7743,2.774,2.7751,2.7758,2.7747,2.777,2.7767,2.7771,2.7796,2.7786,2.7801,2.7812,2.782,2.7811,2.7834,2.7821,2.7817,2.7813,2.7805,2.7917,2.7813,2.7813,2.7814,2.7814,2.7814,0,2.762,2.7636,2.7633,2.7644,2.7641,2.7677,2.7688,2.7683,2.7673,2.7686,2.7685,2.7678,2.7675,2.7701,2.7701,2.7689,2.7705,2.7688,2.7688,2.769,2.7786,2.7793,2.7675,2.7675,2.7675,2.7675,2.7675,2.7675,2.7558,2.7534,2.7555,2.7537,2.7553,2.7544,2.7547,2.7553,2.7563,2.7554,2.7552,2.757,2.7587,2.7589,2.7588,2.7595,2.7592,2.7569,2.7581,2.767,2.7683,2.7696,2.7703,2.7568,2.7568,2.7487,2.7486,2.7485]}]]